Regional Weather Roundup
Issued by NWS

Home | Current Version | Previous Version | Graphics & Text | Print | Product List | Glossary On
Versions: 1 2 3 4 5 6 7 8 9 10 11 12 13 14 15 16 17 18 19 20 21 22 23 24 25 26 27 28 29 30 31 32 33 34 35 36 37 38 39 40 41 42 43 44 45 46 47 48 49 50
000
ASUS45 KSLC 031810
RWRUT
UTAH REGIONAL WEATHER ROUNDUP
NATIONAL WEATHER SERVICE SALT LAKE CITY UT
1200 PM MDT MON AUG 03 2015

UTZ001>011-023>025-031900-

NORTHERN UTAH

CITY           SKY/WX    TMP DP  RH WIND       PRES   REMARKS
BRIGHAM CITY   CLOUDY    62  58  86 SW5       30.15R
HILL AFB       LGT RAIN  60  60  99 NW6       30.14S
LOGAN          HVY RAIN  61  59  93 SW5       30.14R FOG
OGDEN          LGT RAIN  62  60  93 N6        30.12S
PROVO AIRPORT  PTSUNNY   63  57  82 VRB5      30.15R
SALT LAKE CITY RAIN      62  61  96 NW7       30.13R
VERNAL         CLOUDY    69  58  67 S5        30.10S
WENDOVER       CLOUDY    72  57  60 E12       30.11R
HEBER CITY     LGT RAIN  59  55  88 W5        30.15R
WEST JORDAN    CLOUDY    63  61  94 N5        30.15R

$$

UTZ012>022-026-027-031900-

SOUTHERN/CENTRAL UTAH

CITY           SKY/WX    TMP DP  RH WIND       PRES   REMARKS
BLANDING       MOSUNNY   72  58  60 S6        30.29F
BRYCE CANYON   MOSUNNY   71  51  49 SE9       30.30S
CEDAR CITY     SUNNY     80  45  28 VRB3      30.15F
DELTA          MOSUNNY   69  54  58 CALM      30.14F
HANKSVILLE     SUNNY     77  55  47 CALM      30.11F
MILFORD        SUNNY     79  47  32 VRB5      30.12S
MOAB/CYNLANDS  CLOUDY    76  61  59 SW6       30.08S
PRICE          PTSUNNY   67  58  72 VRB3      30.16R
ST GEORGE      CLOUDY    88  52  29 CALM      29.99S
KANAB          SUNNY     84  52  32 SW6       30.17F

$$

REGIONAL REPORTS     COLORADO/ARIZONA

CITY           SKY/WX    TMP DP  RH WIND       PRES   REMARKS
CRAIG, CO      CLOUDY    70  54  56 E6        30.18F
GRAND JUNCTION PTSUNNY   77  54  44 VRB5      30.10S
RIFLE          PTSUNNY   72  56  57 N3        30.16F
MONTROSE       MOSUNNY   77  55  46 VRB5      30.19F
CORTEZ         SUNNY     76  53  44 S7        30.22S
PAGE, AZ       SUNNY     79  59  50 VRB5      30.09S
GRAND CANYON   MOSUNNY   81  39  22 SW15G22   30.27R
KINGMAN        SUNNY     96  42  15 SW13G29   30.02R HX  92
FLAGSTAFF      PTSUNNY   76  41  28 W10G20    30.30F

$$

REGIONAL REPORTS    NEVADA/IDAHO/WYOMING

CITY           SKY/WX    TMP DP  RH WIND       PRES   REMARKS
LAS VEGAS, NV  MOSUNNY  100  38  11 E8        29.85S HX  95
ELY            SUNNY     80  40  23 VRB6      30.16F
ELKO           MOSUNNY   81  46  29 VRB3      30.08S
POCATELLO, ID  MOSUNNY   76  52  43 S22G28    30.05R
BURLEY         CLOUDY    78  49  35 W10       30.01S
EVANSTON, WY   CLOUDY    58  53  84 N7        30.19S
ROCK SPRINGS   CLOUDY    64  55  72 SE15      30.17F
KEMMERER       LGT RAIN  55  52  88 E6        30.21F

$$



USA.gov is the U.S. government's official web portal to all federal, state and local government web resources and services.